Regional Weather Roundup
Issued by NWS

Home | Current Version | Previous Version | Text Only | Print | Product List | Glossary On
Versions: 1 2 3 4 5 6 7 8 9 10 11 12 13 14 15 16 17 18 19 20 21 22 23 24 25 26 27 28 29 30 31 32 33 34 35 36 37 38 39 40 41 42 43 44 45 46 47 48 49 50
000
ASUS45 KCYS 012210
RWRWY

WYOMING REGIONAL WEATHER ROUNDUP
NATIONAL WEATHER SERVICE CHEYENNE WY
400 PM MDT SAT OCT 01 2016

NOTE:  "FAIR" INDICATES FEW OR NO CLOUDS BELOW 12,000 FEET
WITH NO SIGNIFICANT WEATHER AND/OR OBSTRUCTIONS TO VISIBILITY.

WYZ001-012300-
YELLOWSTONE NATIONAL PARK

CITY           SKY/WX    TMP DP  RH WIND       PRES   REMARKS
LK YELLOWSTONE   N/A     53  48  83 CALM      30.17F
W YELLOWSTONE  NOT AVBL

$$
WYZ002>013-054>058-071-098>099-012300-
NORTHERN WYOMING

CITY           SKY/WX    TMP DP  RH WIND       PRES   REMARKS
JACKSON        SUNNY     68  39  34 S10G17    30.08F
CODY           PTSUNNY   70  46  43 S18       29.98R
GREYBULL       FAIR      80  41  24 S10       29.88F
WORLAND        FAIR      82  36  19 S13       29.90F
SHERIDAN       FAIR      82  43  25 SE9       29.89F
BUFFALO        FAIR      79  40  24 S16       29.95F
GILLETTE       FAIR      79  41  25 SW7       29.94F
HULETT         FAIR      79  39  24 W5        29.98S
NEWCASTLE      FAIR      79  36  21 CALM      29.98F

$$
WYZ014>020-022>026-101>103-012300-
CENTRAL WYOMING

CITY           SKY/WX    TMP DP  RH WIND       PRES   REMARKS
BIG PINEY      CLOUDY    68  34  28 W17       30.14S
PINEDALE       FAIR      63  34  34 CALM      30.15S
DUBOIS         CLOUDY    52  41  66 SW15G26   30.13S
LANDER         FAIR      77  32  19 W7        29.99F
RIVERTON       FAIR      76  39  26 VRB6      30.00F
CASPER         FAIR      77  39  25 VRB6      30.02F
DOUGLAS        FAIR      79  39  23 CALM      30.01F

$$
WYZ021-027>030-104>119-012300-
SOUTHERN WYOMING

CITY           SKY/WX    TMP DP  RH WIND       PRES   REMARKS
EVANSTON       FAIR      69  34  27 SW23G29   30.14S
FORT BRIDGER   FAIR      70  35  26 SW12G20   30.17S
ROCK SPRINGS   CLOUDY    61  39  44 SW17      30.16R
DIXON          FAIR      71  35  27 SW8G22    30.17F
RAWLINS        FAIR      72  36  26 SW16G24   30.15R
SARATOGA       FAIR      72  34  25 W12G20    30.17F
LARAMIE        FAIR      68  32  26 SW3       30.15S
CHEYENNE       FAIR      75  38  26 SW10      30.10S
TORRINGTON     FAIR      83  35  18 N6        29.96F
PINE BLUFFS    CLOUDY    72  37  28 S6G17     30.05S

$$



USA.gov is the U.S. government's official web portal to all federal, state and local government web resources and services.